Weather History for Somerville, NJ

Change the Weather History Date:

Monday, September 1, 2014

  Actual Average Record
Temperature  
Mean Temperature 80 °F -  
Max Temperature 89 °F 80 °F 98 °F (1953)
Min Temperature 71 °F 57 °F 40 °F (1976)
Cooling Degree Days 14    
Growing Degree Days 30 (Base 50)    
Moisture  
Dew Point 71 °F    
Average Humidity 86    
Maximum Humidity 97    
Minimum Humidity 53    
Precipitation  
Precipitation 0.00 in - - ()
Sea Level Pressure  
Sea Level Pressure 29.98 in    
Wind  
Wind Speed 0 mph (SSW)    
Max Wind Speed 7 mph    
Max Gust Speed -    
Visibility 6 miles    
Events Fog    
Averages and records for this station are not official NWS values.
T = Trace of Precipitation, MM = Missing Value Source: NWS Daily Summary

Daily Weather History Graph

Daily Weather History Graph

Search for Another Location

Airport:

Trip Planner

Search our weather history database for the weather conditions in past years. The results will help you decide how hot, cold, wet, or windy it might be!

Date:

Astronomy

Sep. 01, 2014 Rise Set
Actual Time 6:25 AM EDT 7:30 PM EDT
Civil Twilight 5:57 AM EDT 7:58 PM EDT
Nautical Twilight 5:24 AM EDT 8:32 PM EDT
Astronomical Twilight 4:49 AM EDT 9:07 PM EDT
Moon 1:10 PM EDT 11:27 PM EDT
Length of Visible Light 14h 01m
Length of Day
13h 05m
Waxing Crescent, 42% of the Moon is Illuminated
Sep 1
Waxing Crescent
Sep 2
First Quarter
Sep 8
Full
Sep 15
Last Quarter
Sep 24
New

Hourly Weather History & Observations

Time (EDT) Temp. Heat Index Dew Point Humidity Pressure Visibility Wind Dir Wind Speed Gust Speed Precip Events Conditions
12:09 AM 73.9 °F - 72.0 °F 93% 29.99 in 1.5 mi Calm Calm - N/A   Overcast
12:22 AM 73.9 °F - 72.0 °F 93% 29.99 in 4.0 mi Calm Calm - N/A   Overcast
12:30 AM 73.0 °F - 71.1 °F 93% 30.00 in 1.8 mi Calm Calm - N/A   Overcast
12:47 AM 73.4 °F - 71.6 °F 94% 30.00 in 3.0 mi Calm Calm - N/A   Overcast
12:53 AM 73.9 °F - 71.1 °F 91% 29.99 in 9.0 mi Calm Calm - N/A   Overcast
1:10 AM 73.0 °F - 71.1 °F 93% 30.00 in 2.5 mi Calm Calm - N/A   Overcast
1:27 AM 73.0 °F - 71.1 °F 93% 30.00 in 5.0 mi SSE 3.5 mph - N/A   Overcast
1:53 AM 73.9 °F - 71.1 °F 91% 29.99 in 8.0 mi Calm Calm - N/A   Overcast
2:38 AM 73.9 °F - 71.1 °F 91% 29.98 in 5.0 mi Calm Calm - N/A   Overcast
2:53 AM 73.0 °F - 71.1 °F 93% 29.98 in 4.0 mi Calm Calm - N/A   Overcast
3:02 AM 73.0 °F - 71.1 °F 93% 29.98 in 4.0 mi Calm Calm - N/A   Mostly Cloudy
3:53 AM 73.0 °F - 71.1 °F 93% 29.98 in 4.0 mi Calm Calm - N/A   Overcast
4:21 AM 73.0 °F - 70.0 °F 90% 29.98 in 2.0 mi Calm Calm - N/A   Overcast
4:31 AM 73.0 °F - 71.1 °F 93% 29.99 in 4.0 mi Calm Calm - N/A   Overcast
4:53 AM 73.0 °F - 70.0 °F 90% 29.98 in 4.0 mi Calm Calm - N/A   Mostly Cloudy
5:02 AM 72.0 °F - 70.0 °F 93% 29.99 in 2.5 mi Calm Calm - N/A   Mostly Cloudy
5:10 AM 72.0 °F - 70.0 °F 93% 29.99 in 1.0 mi Calm Calm - N/A   Mostly Cloudy
5:26 AM 72.0 °F - 70.0 °F 93% 29.99 in 1.0 mi Calm Calm - N/A   Mist
5:42 AM 72.0 °F - 70.0 °F 93% 30.00 in 0.5 mi Calm Calm - N/A Fog Fog
5:53 AM 72.0 °F - 70.0 °F 93% 30.00 in 1.0 mi Calm Calm - N/A   Mist
6:03 AM 71.1 °F - 70.0 °F 96% 30.00 in 0.8 mi Calm Calm - N/A   Mist
6:34 AM 71.1 °F - 69.1 °F 93% 30.01 in 0.5 mi North - - N/A Fog Fog
6:53 AM 71.1 °F - 69.1 °F 93% 30.00 in 0.2 mi North - - N/A Fog Fog
7:08 AM 71.1 °F - 69.1 °F 93% 30.00 in 1.0 mi Calm Calm - N/A   Mist
7:18 AM 71.1 °F - 70.0 °F 96% 30.01 in 1.5 mi Calm Calm - N/A   Scattered Clouds
7:26 AM 71.6 °F - 69.8 °F 94% 30.01 in 2.0 mi Calm Calm - N/A   Mostly Cloudy
7:34 AM 72.0 °F - 71.1 °F 97% 30.01 in 6.0 mi Calm Calm - N/A   Partly Cloudy
7:53 AM 73.0 °F - 71.1 °F 93% 30.00 in 8.0 mi Calm Calm - N/A   Mostly Cloudy
8:27 AM 73.9 °F - 71.1 °F 91% 30.01 in 8.0 mi Calm Calm - N/A   Overcast
8:35 AM 73.4 °F - 71.6 °F 94% 30.00 in 8.0 mi Calm Calm - N/A   Overcast
8:49 AM 75.2 °F - 71.6 °F 89% 30.00 in 8.0 mi Calm Calm - N/A   Overcast
8:53 AM 75.9 °F - 71.1 °F 85% 30.00 in 8.0 mi Calm Calm - N/A   Overcast
9:53 AM 79.0 °F - 73.0 °F 82% 29.99 in 10.0 mi SW 3.5 mph - N/A   Mostly Cloudy
10:53 AM 82.4 °F 87.2 °F 71.6 °F 70% 29.99 in 10.0 mi South 6.9 mph - N/A   Mostly Cloudy
11:53 AM 82.9 °F 87.5 °F 71.1 °F 67% 29.98 in 10.0 mi Calm Calm - N/A   Mostly Cloudy
12:53 PM 84.9 °F 89.4 °F 70.0 °F 61% 29.96 in 10.0 mi Calm Calm - N/A   Overcast
1:53 PM 86.0 °F 90.7 °F 70.0 °F 59% 29.94 in 10.0 mi Variable 3.5 mph - N/A   Mostly Cloudy
2:53 PM 88.0 °F 92.1 °F 69.1 °F 53% 29.93 in 10.0 mi Variable 3.5 mph - N/A   Mostly Cloudy
3:53 PM 87.1 °F 92.0 °F 70.0 °F 57% 29.92 in 10.0 mi Calm Calm - N/A   Scattered Clouds
4:53 PM 86.0 °F 90.7 °F 70.0 °F 59% 29.91 in 10.0 mi West 3.5 mph - N/A   Overcast
5:53 PM 84.9 °F 90.1 °F 71.1 °F 63% 29.91 in 10.0 mi Variable 5.8 mph - N/A   Mostly Cloudy
6:53 PM 84.0 °F 89.0 °F 71.1 °F 65% 29.90 in 10.0 mi Calm Calm - N/A   Partly Cloudy
7:53 PM 79.0 °F - 73.0 °F 82% 29.91 in 10.0 mi Calm Calm - N/A   Mostly Cloudy
8:53 PM 77.0 °F - 73.0 °F 88% 29.92 in 10.0 mi Calm Calm - N/A   Mostly Cloudy
9:53 PM 75.9 °F - 72.0 °F 87% 29.94 in 10.0 mi Calm Calm - N/A   Partly Cloudy
10:53 PM 73.9 °F - 71.1 °F 91% 29.94 in 8.0 mi Calm Calm - N/A   Clear
11:53 PM 73.0 °F - 71.1 °F 93% 29.93 in 8.0 mi Calm Calm - N/A   Clear